星链-36889(STARLINK-36889)

导读

STARLINK-36889(NORAD编号68006)是SpaceX星链(Starlink)低轨互联网星座的一员,隶属于SpaceX主导的全球低轨卫星互联网项目。星链计划旨在打造覆盖全球的天基通信系统,填补偏远地区网络覆盖空白,该卫星运行在近地轨道,是星链万颗组网卫星中的一员,承担宽带互联网接入服务。 2026年SpaceX启动降轨计划,将包括该卫星在内的约4400颗星链卫星轨道高度从550公里降至480公里,以此降低碰撞风险,缩短报废卫星再入大气层时间,缓解近地轨道拥挤问题,提升太空运行安全性。作为星链星座的组成部分,它为全球用户提供低时延宽带接入服务,支撑偏远地区、航空、海事等场景的联网需求。

Basic Information
目录编号:
68006
目录名称:
STARLINK-36889
国际标识:
2026-039W
轨道中心:
EARTH
卫星名称:
星链-36889
卫星全名:
星链-36889(STARLINK-36889)
卫星状态:
在轨 (已飞行190 天)
发射日期:
2026-02-27 UTC
国别 :
美国 (US)
星等 :
--
Orbit Information
数据来源 国际轨道数据
星历时间: 2026-09-05T15:35:22+0800
10小时前
查看轨道信息
半长轴: 6861.15km
偏心率: 0.0000959
轨道倾角: 42.997°
近地点辐角 275.967°
升交点赤经 114.609°
平近点角 84.107°
近地点: 482.355km
远地点: 483.671km
周期: 94.266分钟
每日圈数: 15.275923
Detailed Information
固有亮度:
5
最大亮度:
2.5
卫星平台:
Starlink V1.0
覆盖范围:
全球
运营商:
太空探索技术公司
运营商所在国:
美国
制造商(研发单位):
太空探索技术公司
制造商所在国:
美国
使用方式:
暂无
Satellite Introduction
Starlink 计划是 SpaceX 推出的全球卫星互联网项目,通过发射低轨道卫星,为全球尤其是偏远地区提供高速、低延迟的互联网服务。自 2019 年起,Starlink 已部署数千颗卫星,旨在缩小全球数字鸿沟,推动互联网普及。该项目还为军事、航空等行业提供通信支持,带来广泛经济效益。
2D Orbit Map
3D Orbit Map
Orbit Altitude Analysis Chart
Orbit Inclination Analysis Chart
Orbit Comprehensive Analysis Chart
View Comprehensive Chart
Conjunction Data List
Event ID Objects TCA Miss Dist (km) Collision Risk Probability Collision Risk Index (CRI) Action
CDM_260907-022806-471906-800621
2026-09-07T
02:28:41+0000
2.501 km
极远距离
1.449433E-6 低风险 0.38
CDM_260906-213806-393906-800621
2026-09-06T
21:38:47+0000
2.397 km
极远距离
1.313152E-6 低风险 0.37